Time,TemperatureF,DewpointF,PressureIn,WindDirection,WindDirectionDegrees,WindSpeedMPH,WindSpeedGustMPH,Humidity,HourlyPrecipIn,Conditions,Clouds,dailyrainin,SoftwareType,DateUTC
2013-07-30 00:03:00,65.0,48.0,30.14,SSE,164,0.0,4.0,54,0.00,,,0.00,,2013-07-30 05:03:00,
2013-07-30 00:13:00,65.0,48.0,30.14,SE,138,0.0,0.0,55,0.00,,,0.00,,2013-07-30 05:13:00,
2013-07-30 00:23:00,65.0,49.0,30.14,SE,138,0.0,0.0,57,0.00,,,0.00,,2013-07-30 05:23:00,
2013-07-30 00:33:00,64.0,49.0,30.14,SE,137,0.0,0.0,58,0.00,,,0.00,,2013-07-30 05:33:00,
2013-07-30 00:45:00,64.0,49.0,30.14,SE,137,0.0,0.0,58,0.00,,,0.00,,2013-07-30 05:45:00,
2013-07-30 00:52:00,64.0,49.0,30.11,ESE,108,0.0,0.0,59,0.00,,,0.00,,2013-07-30 05:52:00,
2013-07-30 01:03:00,64.0,49.0,30.11,SSE,147,0.0,0.0,59,0.00,,,0.00,,2013-07-30 06:03:00,
2013-07-30 01:13:00,64.0,49.0,30.11,SSE,147,0.0,0.0,59,0.00,,,0.00,,2013-07-30 06:13:00,
2013-07-30 01:23:00,64.0,51.0,30.14,SE,139,4.0,4.0,62,0.00,,,0.00,,2013-07-30 06:23:00,
2013-07-30 01:33:00,64.0,51.0,30.14,SE,143,0.0,0.0,62,0.00,,,0.00,,2013-07-30 06:33:00,
2013-07-30 01:43:00,64.0,50.0,30.11,WSW,239,0.0,0.0,60,0.00,,,0.00,,2013-07-30 06:43:00,
2013-07-30 01:53:00,63.0,49.0,30.11,SSW,212,0.0,0.0,61,0.00,,,0.00,,2013-07-30 06:53:00,
2013-07-30 02:03:00,63.0,50.0,30.11,SSW,195,0.0,0.0,62,0.00,,,0.00,,2013-07-30 07:03:00,
2013-07-30 02:13:00,62.0,50.0,30.11,SSW,199,0.0,0.0,64,0.00,,,0.00,,2013-07-30 07:13:00,
2013-07-30 02:23:00,62.0,50.0,30.11,SSW,213,0.0,0.0,65,0.00,,,0.00,,2013-07-30 07:23:00,
2013-07-30 02:33:00,62.0,50.0,30.11,SSW,209,0.0,0.0,65,0.00,,,0.00,,2013-07-30 07:33:00,
2013-07-30 02:43:00,62.0,50.0,30.11,SSW,209,0.0,0.0,65,0.00,,,0.00,,2013-07-30 07:43:00,
2013-07-30 02:53:00,62.0,51.0,30.14,ESE,114,0.0,0.0,67,0.00,,,0.00,,2013-07-30 07:53:00,
2013-07-30 03:03:00,62.0,51.0,30.11,ESE,114,0.0,0.0,68,0.00,,,0.00,,2013-07-30 08:03:00,
2013-07-30 03:13:00,61.0,51.0,30.11,East,95,0.0,0.0,69,0.00,,,0.00,,2013-07-30 08:13:00,
2013-07-30 03:23:00,61.0,51.0,30.11,ESE,107,0.0,0.0,69,0.00,,,0.00,,2013-07-30 08:23:00,
2013-07-30 03:33:00,61.0,51.0,30.11,ESE,107,0.0,0.0,69,0.00,,,0.00,,2013-07-30 08:33:00,
2013-07-30 03:43:00,61.0,51.0,30.11,ESE,110,0.0,0.0,70,0.00,,,0.00,,2013-07-30 08:43:00,
2013-07-30 03:53:00,61.0,51.0,30.11,ESE,111,0.0,0.0,69,0.00,,,0.00,,2013-07-30 08:53:00,
2013-07-30 04:03:00,61.0,51.0,30.11,SE,126,0.0,0.0,70,0.00,,,0.00,,2013-07-30 09:03:00,
2013-07-30 04:13:00,61.0,51.0,30.11,SE,126,0.0,0.0,70,0.00,,,0.00,,2013-07-30 09:13:00,
2013-07-30 04:23:00,61.0,51.0,30.11,ESE,114,0.0,0.0,69,0.00,,,0.00,,2013-07-30 09:23:00,
2013-07-30 04:33:00,61.0,50.0,30.11,ESE,115,0.0,0.0,68,0.00,,,0.00,,2013-07-30 09:33:00,
2013-07-30 04:43:00,62.0,51.0,30.11,ESE,115,0.0,0.0,68,0.00,,,0.00,,2013-07-30 09:43:00,
2013-07-30 04:53:00,62.0,51.0,30.11,ESE,115,0.0,0.0,68,0.00,,,0.00,,2013-07-30 09:53:00,
2013-07-30 05:03:00,62.0,51.0,30.11,ESE,115,0.0,0.0,68,0.00,,,0.00,,2013-07-30 10:03:00,
2013-07-30 05:23:00,62.0,51.0,30.11,ESE,116,0.0,0.0,68,0.00,,,0.00,,2013-07-30 10:23:00,
2013-07-30 05:32:00,62.0,51.0,30.11,ESE,115,0.0,0.0,68,0.00,,,0.00,,2013-07-30 10:32:00,
2013-07-30 05:44:00,62.0,51.0,30.11,ESE,112,0.0,0.0,68,0.00,,,0.00,,2013-07-30 10:44:00,
2013-07-30 05:52:00,62.0,51.0,30.11,SE,133,0.0,0.0,68,0.00,,,0.00,,2013-07-30 10:52:00,
2013-07-30 06:02:00,62.0,51.0,30.11,SE,133,0.0,0.0,68,0.00,,,0.00,,2013-07-30 11:02:00,
2013-07-30 06:11:00,62.0,51.0,30.14,SE,126,0.0,0.0,68,0.00,,,0.00,,2013-07-30 11:11:00,
2013-07-30 06:22:00,62.0,51.0,30.14,ESE,104,0.0,0.0,68,0.00,,,0.00,,2013-07-30 11:22:00,
2013-07-30 06:33:00,62.0,51.0,30.14,ESE,104,0.0,0.0,68,0.00,,,0.00,,2013-07-30 11:33:00,
2013-07-30 06:43:00,62.0,51.0,30.14,ESE,104,0.0,0.0,68,0.00,,,0.00,,2013-07-30 11:43:00,
2013-07-30 06:53:00,62.0,52.0,30.14,ESE,104,0.0,0.0,69,0.00,,,0.00,,2013-07-30 11:53:00,
2013-07-30 07:12:00,62.0,51.0,30.14,ESE,104,0.0,0.0,68,0.00,,,0.00,,2013-07-30 12:12:00,
2013-07-30 07:33:00,63.0,52.0,30.14,ESE,104,0.0,0.0,67,0.00,,,0.00,,2013-07-30 12:33:00,
2013-07-30 07:42:00,63.0,52.0,30.14,SE,135,0.0,0.0,67,0.00,,,0.00,,2013-07-30 12:42:00,
2013-07-30 07:53:00,64.0,53.0,30.14,SSW,199,0.0,0.0,67,0.00,,,0.00,,2013-07-30 12:53:00,
2013-07-30 08:02:00,64.0,52.0,30.14,SSW,199,0.0,0.0,65,0.00,,,0.00,,2013-07-30 13:02:00,
2013-07-30 08:12:00,65.0,53.0,30.14,SSE,162,0.0,0.0,65,0.00,,,0.00,,2013-07-30 13:12:00,
2013-07-30 08:22:00,65.0,53.0,30.14,SSE,162,0.0,0.0,65,0.00,,,0.00,,2013-07-30 13:22:00,
2013-07-30 08:32:00,65.0,52.0,30.14,SSE,162,0.0,0.0,62,0.00,,,0.00,,2013-07-30 13:32:00,
2013-07-30 08:42:00,65.0,52.0,30.14,SSE,162,0.0,0.0,62,0.00,,,0.00,,2013-07-30 13:42:00,
2013-07-30 08:52:00,65.0,52.0,30.14,SSE,162,0.0,0.0,62,0.00,,,0.00,,2013-07-30 13:52:00,
2013-07-30 09:02:00,66.0,53.0,30.14,East,94,0.0,0.0,62,0.00,,,0.00,,2013-07-30 14:02:00,
2013-07-30 09:12:00,66.0,53.0,30.14,East,97,0.0,0.0,62,0.00,,,0.00,,2013-07-30 14:12:00,
2013-07-30 09:22:00,66.0,52.0,30.14,ENE,71,4.0,4.0,61,0.00,,,0.00,,2013-07-30 14:22:00,
2013-07-30 18:12:00,73.0,56.0,30.08,ESE,120,3.0,3.0,55,0.00,,,0.00,,2013-07-30 23:12:00,
2013-07-30 18:42:00,73.0,56.0,30.08,ESE,120,3.0,3.0,56,0.00,,,0.00,,2013-07-30 23:42:00,
2013-07-30 18:53:00,73.0,56.0,30.08,ESE,120,3.0,3.0,56,0.00,,,0.00,,2013-07-30 23:53:00,
2013-07-30 19:32:00,72.0,56.0,30.08,ESE,120,3.0,3.0,58,0.00,,,0.00,,2013-07-31 00:32:00,
2013-07-30 19:43:00,72.0,57.0,30.08,ESE,120,3.0,3.0,59,0.00,,,0.00,,2013-07-31 00:43:00,
2013-07-30 19:53:00,72.0,57.0,30.08,ESE,120,3.0,3.0,60,0.00,,,0.00,,2013-07-31 00:53:00,
2013-07-30 20:02:00,71.0,57.0,30.08,ESE,120,3.0,3.0,61,0.00,,,0.00,,2013-07-31 01:02:00,
2013-07-30 20:42:00,71.0,59.0,30.11,SW,219,0.0,0.0,65,0.00,,,0.00,,2013-07-31 01:42:00,
2013-07-30 20:52:00,71.0,59.0,30.11,SW,219,0.0,0.0,65,0.00,,,0.00,,2013-07-31 01:52:00,
2013-07-30 21:02:00,71.0,59.0,30.11,SW,218,0.0,0.0,66,0.00,,,0.00,,2013-07-31 02:02:00,
2013-07-30 21:12:00,71.0,59.0,30.11,SSW,200,6.0,6.0,66,0.00,,,0.00,,2013-07-31 02:12:00,
2013-07-30 21:22:00,70.0,59.0,30.11,South,186,0.0,0.0,67,0.00,,,0.00,,2013-07-31 02:22:00,
2013-07-30 21:32:00,70.0,59.0,30.11,South,185,0.0,0.0,67,0.00,,,0.00,,2013-07-31 02:32:00,
2013-07-30 21:42:00,70.0,59.0,30.11,South,178,4.0,4.0,67,0.00,,,0.00,,2013-07-31 02:42:00,
2013-07-30 21:52:00,69.0,58.0,30.11,SSE,162,0.0,0.0,68,0.00,,,0.00,,2013-07-31 02:52:00,
2013-07-30 22:02:00,69.0,58.0,30.11,SSW,206,0.0,4.0,69,0.00,,,0.00,,2013-07-31 03:02:00,
2013-07-30 22:12:00,69.0,58.0,30.14,SW,217,0.0,0.0,69,0.00,,,0.00,,2013-07-31 03:12:00,
2013-07-30 22:22:00,69.0,58.0,30.14,SSW,201,0.0,0.0,69,0.00,,,0.00,,2013-07-31 03:22:00,
2013-07-30 22:32:00,69.0,58.0,30.14,SSW,201,0.0,0.0,69,0.00,,,0.00,,2013-07-31 03:32:00,
2013-07-30 22:42:00,69.0,59.0,30.11,SSW,206,0.0,0.0,70,0.00,,,0.00,,2013-07-31 03:42:00,
2013-07-30 22:52:00,69.0,59.0,30.11,South,185,0.0,0.0,71,0.00,,,0.00,,2013-07-31 03:52:00,
2013-07-30 23:02:00,68.0,59.0,30.11,SSW,193,0.0,0.0,72,0.00,,,0.00,,2013-07-31 04:02:00,
2013-07-30 23:12:00,68.0,59.0,30.11,SSW,193,0.0,0.0,74,0.00,,,0.00,,2013-07-31 04:12:00,
2013-07-30 23:22:00,68.0,59.0,30.11,SSW,193,0.0,0.0,74,0.00,,,0.00,,2013-07-31 04:22:00,
2013-07-30 23:32:00,68.0,59.0,30.11,SSW,193,0.0,0.0,74,0.00,,,0.00,,2013-07-31 04:32:00,
2013-07-30 23:42:00,68.0,59.0,30.11,SSW,193,0.0,0.0,74,0.00,,,0.00,,2013-07-31 04:42:00,
2013-07-30 23:52:00,66.0,59.0,30.11,SSW,192,0.0,0.0,78,0.00,,,0.00,,2013-07-31 04:52:00,